Time,TemperatureF,DewpointF,PressureIn,WindDirection,WindDirectionDegrees,WindSpeedMPH,WindSpeedGustMPH,Humidity,HourlyPrecipIn,Conditions,Clouds,dailyrainin,SoftwareType,DateUTC
2013-01-14 00:22:00,17.0,4.0,30.24,North,0,0.0,-999.0,55,0.00,,,-99.99,,2013-01-14 08:22:00,
2013-01-14 00:32:00,17.0,4.0,30.24,North,0,0.0,-999.0,55,0.00,,,-99.99,,2013-01-14 08:32:00,
2013-01-14 00:42:00,17.0,4.0,30.24,North,0,0.0,-999.0,55,0.00,,,-99.99,,2013-01-14 08:42:00,
2013-01-14 00:52:00,17.0,4.0,30.24,North,0,0.0,-999.0,55,0.00,,,-99.99,,2013-01-14 08:52:00,
2013-01-14 01:22:00,17.0,3.0,30.25,North,0,0.0,-999.0,54,0.00,,,-99.99,,2013-01-14 09:22:00,
2013-01-14 01:33:00,17.0,3.0,30.25,North,0,0.0,-999.0,54,0.00,,,-99.99,,2013-01-14 09:33:00,
2013-01-14 01:42:00,17.0,3.0,30.25,North,0,0.0,-999.0,54,0.00,,,-99.99,,2013-01-14 09:42:00,
2013-01-14 01:52:00,17.0,3.0,30.25,North,0,0.0,-999.0,54,0.00,,,-99.99,,2013-01-14 09:52:00,
2013-01-14 02:22:00,16.0,3.0,30.27,North,0,0.0,-999.0,56,0.00,,,-99.99,,2013-01-14 10:22:00,
2013-01-14 02:32:00,16.0,3.0,30.27,North,0,0.0,-999.0,56,0.00,,,-99.99,,2013-01-14 10:32:00,
2013-01-14 02:42:00,16.0,3.0,30.27,North,0,0.0,-999.0,56,0.00,,,-99.99,,2013-01-14 10:42:00,
2013-01-14 02:52:00,16.0,3.0,30.27,North,0,0.0,-999.0,56,0.00,,,-99.99,,2013-01-14 10:52:00,
2013-01-14 03:22:00,15.0,1.0,30.28,North,0,0.0,-999.0,54,0.00,,,-99.99,,2013-01-14 11:22:00,
2013-01-14 03:32:00,15.0,1.0,30.28,North,0,0.0,-999.0,54,0.00,,,-99.99,,2013-01-14 11:32:00,
2013-01-14 03:42:00,15.0,1.0,30.28,North,0,0.0,-999.0,54,0.00,,,-99.99,,2013-01-14 11:42:00,
2013-01-14 03:53:00,15.0,1.0,30.28,North,0,0.0,-999.0,54,0.00,,,-99.99,,2013-01-14 11:53:00,
2013-01-14 04:22:00,14.0,1.0,30.27,North,0,0.0,-999.0,56,0.00,,,-99.99,,2013-01-14 12:22:00,
2013-01-14 04:33:00,14.0,1.0,30.27,North,0,0.0,-999.0,56,0.00,,,-99.99,,2013-01-14 12:33:00,
2013-01-14 04:42:00,14.0,1.0,30.27,North,0,0.0,-999.0,56,0.00,,,-99.99,,2013-01-14 12:42:00,
2013-01-14 04:52:00,14.0,1.0,30.27,North,0,0.0,-999.0,56,0.00,,,-99.99,,2013-01-14 12:52:00,
2013-01-14 05:22:00,14.0,-1.0,30.26,North,0,0.0,-999.0,51,0.00,,,-99.99,,2013-01-14 13:22:00,
2013-01-14 05:33:00,14.0,-1.0,30.26,North,0,0.0,-999.0,51,0.00,,,-99.99,,2013-01-14 13:33:00,
2013-01-14 05:43:00,14.0,-1.0,30.26,North,0,0.0,-999.0,51,0.00,,,-99.99,,2013-01-14 13:43:00,
2013-01-14 05:52:00,14.0,-1.0,30.26,North,0,0.0,-999.0,51,0.00,,,-99.99,,2013-01-14 13:52:00,
2013-01-14 06:22:00,15.0,-4.0,30.28,North,360,10.0,-999.0,41,0.00,,,-99.99,,2013-01-14 14:22:00,
2013-01-14 06:33:00,15.0,-4.0,30.28,North,360,10.0,-999.0,41,0.00,,,-99.99,,2013-01-14 14:33:00,
2013-01-14 06:42:00,15.0,-4.0,30.28,North,360,10.0,-999.0,41,0.00,,,-99.99,,2013-01-14 14:42:00,
2013-01-14 06:52:00,15.0,-4.0,30.28,North,360,10.0,-999.0,41,0.00,,,-99.99,,2013-01-14 14:52:00,
2013-01-14 07:23:00,15.0,-4.0,30.31,NNE,20,6.0,-999.0,41,0.00,,,-99.99,,2013-01-14 15:23:00,
2013-01-14 07:33:00,15.0,-4.0,30.31,NNE,20,6.0,-999.0,41,0.00,,,-99.99,,2013-01-14 15:33:00,
2013-01-14 07:43:00,15.0,-4.0,30.31,NNE,20,6.0,-999.0,41,0.00,,,-99.99,,2013-01-14 15:43:00,
2013-01-14 07:53:00,15.0,-4.0,30.31,NNE,20,6.0,-999.0,41,0.00,,,-99.99,,2013-01-14 15:53:00,
2013-01-14 08:23:00,17.0,-3.0,30.35,ESE,120,2.0,-999.0,40,0.00,,,-99.99,,2013-01-14 16:23:00,
2013-01-14 08:33:00,17.0,-3.0,30.35,ESE,120,2.0,-999.0,40,0.00,,,-99.99,,2013-01-14 16:33:00,
2013-01-14 08:43:00,17.0,-3.0,30.35,ESE,120,2.0,-999.0,40,0.00,,,-99.99,,2013-01-14 16:43:00,
2013-01-14 08:52:00,17.0,-3.0,30.35,ESE,120,2.0,-999.0,40,0.00,,,-99.99,,2013-01-14 16:52:00,
2013-01-14 09:23:00,20.0,-3.0,30.36,North,0,0.0,-999.0,36,0.00,,,-99.99,,2013-01-14 17:23:00,
2013-01-14 09:33:00,20.0,-3.0,30.36,North,0,0.0,-999.0,36,0.00,,,-99.99,,2013-01-14 17:33:00,
2013-01-14 09:43:00,20.0,-3.0,30.36,North,0,0.0,-999.0,36,0.00,,,-99.99,,2013-01-14 17:43:00,
2013-01-14 09:53:00,20.0,-3.0,30.36,North,0,0.0,-999.0,36,0.00,,,-99.99,,2013-01-14 17:53:00,
2013-01-14 10:22:00,22.0,-3.0,30.37,SE,130,2.0,-999.0,32,0.00,,,-99.99,,2013-01-14 18:22:00,
2013-01-14 10:33:00,22.0,-3.0,30.37,SE,130,2.0,-999.0,32,0.00,,,-99.99,,2013-01-14 18:33:00,
2013-01-14 10:42:00,22.0,-3.0,30.37,SE,130,2.0,-999.0,32,0.00,,,-99.99,,2013-01-14 18:42:00,
2013-01-14 10:52:00,22.0,-3.0,30.37,SE,130,2.0,-999.0,32,0.00,,,-99.99,,2013-01-14 18:52:00,
2013-01-14 11:22:00,24.0,-4.0,30.37,ESE,120,8.0,-999.0,29,0.00,,,-99.99,,2013-01-14 19:22:00,
2013-01-14 11:33:00,24.0,-4.0,30.37,ESE,120,8.0,-999.0,29,0.00,,,-99.99,,2013-01-14 19:33:00,
2013-01-14 11:42:00,24.0,-4.0,30.37,ESE,120,8.0,-999.0,29,0.00,,,-99.99,,2013-01-14 19:42:00,
2013-01-14 11:52:00,24.0,-4.0,30.37,ESE,120,8.0,-999.0,29,0.00,,,-99.99,,2013-01-14 19:52:00,
2013-01-14 12:22:00,26.0,-3.0,30.36,East,100,9.0,-999.0,27,0.00,,,-99.99,,2013-01-14 20:22:00,
2013-01-14 12:33:00,26.0,-3.0,30.36,East,100,9.0,-999.0,27,0.00,,,-99.99,,2013-01-14 20:33:00,
2013-01-14 12:42:00,26.0,-3.0,30.36,East,100,9.0,-999.0,27,0.00,,,-99.99,,2013-01-14 20:42:00,
2013-01-14 12:53:00,26.0,-3.0,30.36,East,100,9.0,-999.0,27,0.00,,,-99.99,,2013-01-14 20:53:00,
2013-01-14 13:22:00,26.0,-3.0,30.35,North,0,0.0,-999.0,27,0.00,,,-99.99,,2013-01-14 21:22:00,
2013-01-14 13:33:00,26.0,-3.0,30.35,North,0,0.0,-999.0,27,0.00,,,-99.99,,2013-01-14 21:33:00,
2013-01-14 13:42:00,26.0,-3.0,30.35,North,0,0.0,-999.0,27,0.00,,,-99.99,,2013-01-14 21:42:00,
2013-01-14 13:53:00,26.0,-3.0,30.35,North,0,0.0,-999.0,27,0.00,,,-99.99,,2013-01-14 21:53:00,
2013-01-14 14:23:00,27.0,-2.0,30.36,East,100,1.0,-999.0,28,0.00,,,-99.99,,2013-01-14 22:23:00,
2013-01-14 14:32:00,27.0,-2.0,30.36,East,100,1.0,-999.0,28,0.00,,,-99.99,,2013-01-14 22:32:00,
2013-01-14 14:42:00,27.0,-2.0,30.36,East,100,1.0,-999.0,28,0.00,,,-99.99,,2013-01-14 22:42:00,
2013-01-14 14:52:00,27.0,-2.0,30.36,East,100,1.0,-999.0,28,0.00,,,-99.99,,2013-01-14 22:52:00,
2013-01-14 15:23:00,27.0,-2.0,30.39,North,0,0.0,-999.0,27,0.00,,,-99.99,,2013-01-14 23:23:00,
2013-01-14 15:33:00,27.0,-2.0,30.39,North,0,0.0,-999.0,27,0.00,,,-99.99,,2013-01-14 23:33:00,
2013-01-14 15:42:00,27.0,-2.0,30.39,North,0,0.0,-999.0,27,0.00,,,-99.99,,2013-01-14 23:42:00,
2013-01-14 15:52:00,27.0,-2.0,30.39,North,0,0.0,-999.0,27,0.00,,,-99.99,,2013-01-14 23:52:00,
2013-01-14 16:22:00,26.0,-3.0,30.40,North,0,0.0,-999.0,27,0.00,,,-99.99,,2013-01-15 00:22:00,
2013-01-14 16:32:00,26.0,-3.0,30.40,North,0,0.0,-999.0,27,0.00,,,-99.99,,2013-01-15 00:32:00,
2013-01-14 16:43:00,26.0,-3.0,30.40,North,0,0.0,-999.0,27,0.00,,,-99.99,,2013-01-15 00:43:00,
2013-01-14 16:52:00,26.0,-3.0,30.40,North,0,0.0,-999.0,27,0.00,,,-99.99,,2013-01-15 00:52:00,
2013-01-14 17:22:00,24.0,-2.0,30.42,East,80,1.0,-999.0,32,0.00,,,-99.99,,2013-01-15 01:22:00,
2013-01-14 17:32:00,24.0,-2.0,30.42,East,80,1.0,-999.0,32,0.00,,,-99.99,,2013-01-15 01:32:00,
2013-01-14 17:42:00,24.0,-2.0,30.42,East,80,1.0,-999.0,32,0.00,,,-99.99,,2013-01-15 01:42:00,
2013-01-14 17:52:00,24.0,-2.0,30.42,East,80,1.0,-999.0,32,0.00,,,-99.99,,2013-01-15 01:52:00,
2013-01-14 18:22:00,23.0,-2.0,30.43,ESE,110,1.0,-999.0,33,0.00,,,-99.99,,2013-01-15 02:22:00,
2013-01-14 18:32:00,23.0,-2.0,30.43,ESE,110,1.0,-999.0,33,0.00,,,-99.99,,2013-01-15 02:32:00,
2013-01-14 18:42:00,23.0,-2.0,30.43,ESE,110,1.0,-999.0,33,0.00,,,-99.99,,2013-01-15 02:42:00,
2013-01-14 18:52:00,23.0,-2.0,30.43,ESE,110,1.0,-999.0,33,0.00,,,-99.99,,2013-01-15 02:52:00,
2013-01-14 19:22:00,24.0,0.0,30.46,ESE,120,1.0,-999.0,35,0.00,,,-99.99,,2013-01-15 03:22:00,
2013-01-14 19:33:00,24.0,0.0,30.46,ESE,120,1.0,-999.0,35,0.00,,,-99.99,,2013-01-15 03:33:00,
2013-01-14 19:42:00,24.0,0.0,30.46,ESE,120,1.0,-999.0,35,0.00,,,-99.99,,2013-01-15 03:42:00,
2013-01-14 19:52:00,24.0,0.0,30.46,ESE,120,1.0,-999.0,35,0.00,,,-99.99,,2013-01-15 03:52:00,
2013-01-14 20:22:00,23.0,0.0,30.46,North,0,0.0,-999.0,36,0.00,,,-99.99,,2013-01-15 04:22:00,
2013-01-14 20:32:00,23.0,0.0,30.46,North,0,0.0,-999.0,36,0.00,,,-99.99,,2013-01-15 04:32:00,
2013-01-14 20:42:00,23.0,0.0,30.46,North,0,0.0,-999.0,36,0.00,,,-99.99,,2013-01-15 04:42:00,
2013-01-14 20:52:00,23.0,0.0,30.46,North,0,0.0,-999.0,36,0.00,,,-99.99,,2013-01-15 04:52:00,
2013-01-14 21:22:00,23.0,1.0,30.47,East,80,1.0,-999.0,38,0.00,,,-99.99,,2013-01-15 05:22:00,
2013-01-14 21:33:00,23.0,1.0,30.47,East,80,1.0,-999.0,38,0.00,,,-99.99,,2013-01-15 05:33:00,
2013-01-14 21:42:00,23.0,1.0,30.47,East,80,1.0,-999.0,38,0.00,,,-99.99,,2013-01-15 05:42:00,
2013-01-14 21:52:00,23.0,1.0,30.47,East,80,1.0,-999.0,38,0.00,,,-99.99,,2013-01-15 05:52:00,
2013-01-14 22:22:00,25.0,2.0,30.48,North,0,0.0,-999.0,37,0.00,,,-99.99,,2013-01-15 06:22:00,
2013-01-14 22:32:00,25.0,2.0,30.48,North,0,0.0,-999.0,37,0.00,,,-99.99,,2013-01-15 06:32:00,
2013-01-14 22:42:00,25.0,2.0,30.48,North,0,0.0,-999.0,37,0.00,,,-99.99,,2013-01-15 06:42:00,
2013-01-14 22:52:00,25.0,2.0,30.48,North,0,0.0,-999.0,37,0.00,,,-99.99,,2013-01-15 06:52:00,
2013-01-14 23:22:00,24.0,4.0,30.48,North,0,0.0,-999.0,41,0.00,,,-99.99,,2013-01-15 07:22:00,
2013-01-14 23:32:00,24.0,4.0,30.48,North,0,0.0,-999.0,41,0.00,,,-99.99,,2013-01-15 07:32:00,
2013-01-14 23:42:00,24.0,4.0,30.48,North,0,0.0,-999.0,41,0.00,,,-99.99,,2013-01-15 07:42:00,
2013-01-14 23:52:00,24.0,4.0,30.48,North,0,0.0,-999.0,41,0.00,,,-99.99,,2013-01-15 07:52:00,